Погода в Сьюдад-дель-Кармен

Мексика     18°38′35″N   91°49′05″W
темп.,
°C
ветер,
м/с
пор.,
м/с
влажн.,
%
обл.,
%
осадки,
мм/ч
давл.,
гПа
погр.,
м
14 мая, пт
пт1401:00+28ссв8873100 0.1 1015579
04:00+28св557163 2.9 1014401
07:00+28вюв557498 3.4 1014434
10:00+27юв5578100 0.0 1016421
13:00+27в22737 0.0 1015159
16:00+29с76685 0.0 1013297
19:00+29ссз777524 0.0 1013518
22:00+28ссв997467 0.1 1015724
15 мая, сб
сб1501:00+28св6775100 2.9 1015472
04:00+28юв6574100 1.2 1013517
07:00+26ю4583100 1.8 1014304
10:00+26юв557999 0.0 1016415
13:00+27в227248 0.0 1015169
16:00+29с6568100 0.0 1012253
19:00+28ссв897535 0.0 1011325
22:00+28ссв9107982 0.0 1012454
16 мая, вс
вс1601:00+29в687627 1.8 1012279
04:00+28юв1012715 0.6 1011631
07:00+27юв997498 0.6 1013539
10:00+27юв7875100 0.0 1014529
13:00+29в2363100 0.0 1013199
16:00+30ссв5462100 0.0 1010137
19:00+29ссв7975100 0.0 1010186
22:00+29св101081100 0.0 1011408
17 мая, пн
пн1701:00+29в6876100 0.9 1011344
04:00+28вюв81067100 0.0 1010692
07:00+27юв91173100 0.0 1011587
10:00+27юв8973100 0.0 1013661
13:00+29вюв356842 0.0 1011298
16:00+31св335999 0.0 100938
19:00+30ссв677313 0.0 1008122
22:00+29всв911784 0.0 1011381
18 мая, вт
вт1801:00+29вюв67770 1.1 1011439
04:00+27юв911785 0.1 1010535
07:00+27юв9108220 0.1 1010510
10:00+28юв8977100 0.0 1011621
13:00+29всв23700 0.0 101096
16:00+31ссв54660 0.0 100668
19:00+30ссв79780 0.0 1005161
22:00+29всв10128119 0.1 1008395